DW9622 Weather Reports


time (UTC)temp
C
wind
direction
speed
KPH
gust
KPH
rain 1hr
cm
rain 24hr
cm
rain mn
cm
humidity
%
barometer
mb
20260506112905 13 192 6.4 16.1 0.00 0.00 0.00 80 1015.1
20260506111829 13 194 8.0 16.1 0.00 0.00 0.00 80 1015.0
20260506111350 13 182 9.7 17.7 0.00 0.00 0.00 80 1015.0
20260506110528 13 165 9.7 17.7 0.00 0.00 0.00 80 1014.9
20260506105455 13 188 9.7 17.7 0.00 0.00 0.00 80 1014.9
20260506104748 13 195 11.3 22.5 0.00 0.00 0.00 80 1014.7
20260506103937 13 169 9.7 22.5 0.00 0.00 0.00 80 1014.7
20260506103123 13 207 9.7 17.7 0.00 0.00 0.00 80 1014.7
20260506102421 13 173 8.0 16.1 0.00 0.00 0.00 80 1014.7
20260506101600 13 176 6.4 22.5 0.00 0.00 0.00 80 1014.8
20260506100632 13 188 11.3 22.5 0.00 0.00 0.00 79 1014.5
20260506095932 14 158 9.7 17.7 0.00 0.00 0.00 79 1014.5
20260506095225 14 162 6.4 19.3 0.00 0.00 0.00 79 1014.4
20260506094302 14 171 9.7 19.3 0.00 0.00 0.00 79 1014.4
20260506093444 14 213 9.7 17.7 0.00 0.00 0.00 78 1014.4
20260506092849 15 167 6.4 19.3 0.00 0.00 0.00 78 1014.4
20260506091812 15 170 9.7 19.3 0.00 0.00 0.00 77 1014.4
20260506091224 15 176 8.0 17.7 0.00 0.00 0.00 77 1014.4
20260506090146 15 186 6.4 22.5 0.00 0.00 0.00 76 1014.4
20260506085109 15 186 6.4 22.5 0.00 0.00 0.00 76 1014.4
20260506084408 15 143 6.4 20.9 0.00 0.00 0.00 76 1014.5
20260506083919 16 205 9.7 20.9 0.00 0.00 0.00 75 1014.5
20260506083215 16 243 9.7 19.3 0.00 0.00 0.00 75 1014.4
20260506082402 16 175 8.0 17.7 0.00 0.00 0.00 74 1014.5
20260506082026 16 173 8.0 19.3 0.00 0.00 0.00 74 1014.5
20260506081059 16 238 8.0 19.3 0.00 0.00 0.00 74 1014.5
20260506080509 16 187 9.7 19.3 0.00 0.00 0.00 73 1014.5
20260506073418 17 169 9.7 17.7 0.00 0.00 0.00 71 1014.5
20260506072608 17 194 9.7 19.3 0.00 0.00 0.00 71 1014.6
20260506071753 17 224 8.0 27.4 0.00 0.00 0.00 71 1014.5
20260506071154 17 218 16.1 25.7 0.00 0.00 0.00 70 1014.5
20260506070605 17 178 12.9 25.7 0.00 0.00 0.00 70 1014.5
20260506062016 17 232 9.7 27.4 0.00 0.00 0.00 71 1014.5
20260506061310 17 163 14.5 27.4 0.00 0.00 0.00 72 1014.5
20260506060350 17 205 11.3 22.5 0.00 0.00 0.00 71 1014.4
20260506051300 17 192 9.7 22.5 0.00 0.00 0.00 72 1014.6
20260506050442 17 199 14.5 22.5 0.00 0.00 0.00 72 1014.9
20260506044436 17 187 11.3 29.0 0.00 0.00 0.00 73 1014.9
20260506043613 17 198 14.5 29.0 0.00 0.00 0.00 72 1015.0
20260506042803 17 201 11.3 22.5 0.00 0.00 0.00 74 1015.1
20260506042056 17 213 12.9 25.7 0.00 0.00 0.00 74 1015.2
20260506041502 17 208 11.3 25.7 0.00 0.00 0.00 74 1015.1
20260506040907 17 221 11.3 25.7 0.00 0.00 0.00 74 1015.2
20260506040418 17 141 11.3 25.7 0.00 0.00 0.00 74 1015.2
20260506035824 17 193 14.5 20.9 0.00 0.00 0.00 73 1015.3
20260506035345 17 227 11.3 27.4 0.00 0.00 0.00 74 1015.3
20260506034900 17 209 9.7 27.4 0.00 0.00 0.00 73 1015.4
20260506034154 17 191 12.9 20.9 0.00 0.00 0.00 72 1015.4
20260506033449 17 187 11.3 24.1 0.00 0.00 0.00 75 1015.4
20260506032635 17 190 16.1 24.1 0.00 0.00 0.00 73 1015.5
20260506031602 17 171 14.5 25.7 0.00 0.00 0.00 74 1015.6
20260506030753 17 182 12.9 25.7 0.00 0.00 0.00 74 1015.6
20260506030158 17 200 11.3 25.7 0.00 0.00 0.00 74 1015.6
20260506025231 17 217 12.9 24.1 0.00 0.00 0.00 73 1015.6
20260506024108 17 242 12.9 24.1 0.00 0.00 0.00 73 1015.7
20260506023100 17 168 14.5 24.1 0.00 0.00 0.00 73 1015.7
20260506022655 17 136 11.3 22.5 0.00 0.00 0.00 73 1015.7
20260506021842 17 202 11.3 22.5 0.00 0.00 0.00 74 1015.8
20260506021503 17 182 9.7 25.7 0.00 0.00 0.00 75 1015.7
20260506020434 17 174 11.3 27.4 0.00 0.00 0.00 73 1015.7
20260506015950 17 228 12.9 27.4 0.00 0.00 0.00 74 1015.7
20260506014917 17 205 12.9 22.5 0.00 0.00 0.00 74 1015.8
20260506014426 17 192 11.3 27.4 0.00 0.00 0.00 74 1015.7
20260506013624 17 174 14.5 27.4 0.00 0.00 0.00 74 1015.8
20260506012805 17 190 14.5 27.4 0.00 0.00 0.00 73 1015.8
20260506011950 17 182 19.3 25.7 0.00 0.00 0.00 72 1015.8
20260506011023 17 159 12.9 25.7 0.00 0.00 0.00 74 1015.8
20260506010428 17 190 12.9 24.1 0.00 0.00 0.00 75 1015.9
20260506010057 17 215 11.3 24.1 0.00 0.00 0.00 75 1015.9
20260506005456 17 197 9.7 27.4 0.00 0.00 0.00 77 1016.0
20260506005125 17 210 14.5 27.4 0.00 0.00 0.00 74 1016.0
20260506004856 16 163 9.7 22.5 0.00 0.00 0.00 74 1016.0
20260506003824 16 222 14.5 22.5 0.00 0.00 0.00 74 1016.1
20260506002749 17 185 8.0 22.5 0.00 0.00 0.00 74 1016.0
20260506001604 17 183 12.9 22.5 0.00 0.00 0.00 74 1016.1
20260506001233 17 185 12.9 25.7 0.00 0.00 0.00 76 1016.1
20260506000311 16 244 14.5 25.7 0.00 0.00 0.00 75 1016.0
20260505235342 16 239 14.5 24.1 0.00 0.00 0.00 75 1016.1
20260505234437 16 254 14.5 22.5 0.00 0.00 0.00 76 1016.2
20260505233841 16 238 14.5 22.5 0.00 0.00 0.00 77 1016.1
20260505232807 16 238 16.1 24.1 0.00 0.00 0.00 77 1016.2
20260505231735 16 188 12.9 27.4 0.00 0.00 0.00 75 1016.3
20260505231534 16 215 11.3 27.4 0.00 0.00 0.00 75 1016.2
20260505230913 16 191 11.3 22.5 0.00 0.00 0.00 78 1016.2
20260505225952 16 185 11.3 24.1 0.00 0.00 0.00 78 1016.2
20260505225241 16 227 14.5 29.0 0.00 0.00 0.00 77 1016.3
20260505224546 16 225 16.1 27.4 0.00 0.00 0.00 76 1016.4
20260505223724 16 223 16.1 25.7 0.00 0.00 0.00 78 1016.3
20260505222802 16 245 12.9 24.1 0.00 0.00 0.00 78 1016.3
20260505222203 16 246 12.9 24.1 0.00 0.00 0.00 76 1016.3
20260505221615 16 188 11.3 25.7 0.00 0.00 0.00 75 1016.2
20260505221235 16 134 12.9 25.7 0.00 0.00 0.00 75 1016.2
20260505220904 16 186 9.7 22.5 0.00 0.00 0.00 78 1016.2
20260505220312 16 228 12.9 22.5 0.00 0.00 0.00 78 1016.2
20260505215455 16 165 12.9 22.5 0.00 0.00 0.00 77 1016.2
20260505214754 16 140 14.5 22.5 0.00 0.00 0.00 77 1016.2
20260505214049 16 174 8.0 22.5 0.00 0.00 0.00 79 1016.2
20260505213336 15 226 14.5 24.1 0.00 0.00 0.00 79 1016.2
20260505212635 15 225 17.7 25.7 0.00 0.00 0.00 78 1016.2
20260505211937 15 229 11.3 25.7 0.00 0.00 0.00 80 1016.2
20260505211234 16 234 17.7 25.7 0.00 0.00 0.00 78 1016.2
20260505210413 16 216 8.0 19.3 0.00 0.00 0.00 79 1016.3
20260505205606 15 238 9.7 20.9 0.00 0.00 0.00 79 1016.2
20260505205224 16 169 11.3 24.1 0.00 0.00 0.00 78 1016.2
20260505204540 16 204 9.7 24.1 0.00 0.00 0.00 80 1016.2
20260505204041 16 245 11.3 20.9 0.00 0.00 0.00 79 1016.2
20260505203335 16 185 11.3 20.9 0.00 0.00 0.00 78 1016.2
20260505202850 15 190 12.9 20.9 0.00 0.00 0.00 79 1016.1
20260505202148 15 229 14.5 24.1 0.00 0.00 0.00 80 1016.1
20260505201226 15 173 12.9 24.1 0.00 0.00 0.00 79 1016.1
20260505200519 15 161 12.9 19.3 0.00 0.00 0.00 78 1016.0
20260505195820 16 211 9.7 22.5 0.00 0.00 0.00 80 1016.1
20260505194746 15 159 8.0 22.5 0.00 0.00 0.00 81 1016.0
20260505193823 15 251 12.9 22.5 0.00 0.00 0.00 80 1016.1
20260505193119 15 230 9.7 24.1 0.00 0.00 0.00 80 1016.2
20260505192407 15 211 12.9 24.1 0.00 0.00 0.00 79 1016.2
20260505191822 15 190 9.7 19.3 0.00 0.00 0.00 81 1016.1
20260505190753 15 224 11.3 19.3 0.00 0.00 0.00 81 1016.1
20260505185716 15 188 11.3 22.5 0.00 0.00 0.00 80 1016.0
20260505185232 15 203 6.4 24.1 0.00 0.00 0.00 81 1016.0
20260505184420 15 182 12.9 24.1 0.00 0.00 0.00 81 1016.1
20260505183712 15 229 11.3 24.1 0.00 0.00 0.00 81 1016.1
20260505182750 15 218 11.3 24.1 0.00 0.00 0.00 82 1016.1
20260505181610 15 198 12.9 20.9 0.00 0.00 0.00 81 1016.0
20260505180751 14 198 9.7 19.3 0.00 0.00 0.00 82 1016.0
20260505175936 14 217 11.3 20.9 0.00 0.00 0.00 83 1016.0
20260505175124 14 204 11.3 20.9 0.00 0.00 0.00 83 1016.0
20260505174745 14 195 8.0 17.7 0.00 0.00 0.00 84 1016.0
20260505173831 13 180 8.0 22.5 0.00 0.00 0.00 83 1016.0
20260505172648 14 207 8.0 22.5 0.00 0.00 0.00 83 1015.9
20260505172049 14 181 9.7 19.3 0.00 0.00 0.00 82 1015.9
20260505171718 14 178 9.7 19.3 0.00 0.00 0.00 83 1015.9
20260505171129 14 217 9.7 20.9 0.00 0.00 0.00 84 1015.8
20260505170109 14 251 11.3 20.9 0.00 0.00 0.00 83 1015.8
20260505165350 14 229 6.4 19.3 0.00 0.00 0.00 84 1015.8
20260505164547 14 189 9.7 19.3 0.00 0.00 0.00 84 1015.8
20260505163725 13 209 11.3 19.3 0.00 0.00 0.00 84 1015.8
20260505162649 14 234 8.0 14.5 0.00 0.00 0.00 83 1015.9
20260505162054 14 207 3.2 16.1 0.00 0.00 0.00 85 1015.9
20260505161348 13 194 9.7 17.7 0.00 0.00 0.00 84 1015.8
20260505160754 13 215 9.7 17.7 0.00 0.00 0.00 84 1015.8
20260505160311 13 193 9.7 14.5 0.00 0.00 0.00 85 1015.7
20260505153118 13 250 6.4 14.5 0.00 0.00 0.00 86 1015.4
20260505152519 13 209 6.4 12.9 0.00 0.00 0.00 86 1015.3
20260505151929 13 227 6.4 14.5 0.00 0.00 0.00 86 1015.2
20260505151115 13 148 9.7 14.5 0.00 0.00 0.00 86 1015.2
20260505150629 12 192 4.8 11.3 0.00 0.00 0.00 87 1015.1
20260505140303 12 166 8.0 14.5 0.00 0.00 0.00 89 1014.5
20260505124950 12 186 11.3 24.1 0.00 0.00 0.00 87 1013.9
20260505124136 12 177 9.7 22.5 0.00 0.00 0.00 87 1013.8
20260505123539 12 204 9.7 22.5 0.00 0.00 0.00 87 1013.8
20260505122840 12 163 11.3 22.5 0.00 0.00 0.00 87 1013.8
20260505122355 12 167 8.0 22.5 0.00 0.00 0.00 86 1013.7
20260505121612 12 166 9.7 19.3 0.00 0.00 0.00 86 1013.6
20260505121010 12 167 11.3 25.7 0.00 0.00 0.00 86 1013.5
20260505120510 12 175 8.0 25.7 0.00 0.00 0.00 85 1013.5
20260505120030 12 186 8.0 19.3 0.00 0.00 0.00 85 1013.4
20260505115533 12 182 11.3 19.3 0.00 0.00 0.00 85 1013.3
20260505115011 12 216 8.0 19.3 0.00 0.00 0.00 85 1013.2
20260505114514 12 180 8.0 19.3 0.00 0.00 0.00 85 1013.1
20260505114011 12 180 9.7 16.1 0.00 0.00 0.00 85 1013.1
20260505113512 12 214 8.0 14.5 0.00 0.00 0.00 84 1013.1
20260505113026 12 181 6.4 14.5 0.00 0.00 0.00 84 1013.1